TimeEST,TemperatureF,Dew PointF,Humidity,Sea Level PressureIn,VisibilityMPH,Wind Direction,Wind SpeedMPH,Gust SpeedMPH,PrecipitationIn,Events,Conditions,WindDirDegrees,DateUTC
12:21 AM,44.6,42.8,93,30.15,4.0,WSW,6.9,-,N/A,,Overcast,240,2013-01-12 05:21:00
12:43 AM,44.6,44.6,100,30.14,2.5,SSW,3.5,-,N/A,,Overcast,200,2013-01-12 05:43:00
12:53 AM,44.1,43.0,96,30.13,1.0,SW,4.6,-,N/A,,Overcast,230,2013-01-12 05:53:00
1:00 AM,44.6,42.8,93,30.14,0.5,SW,3.5,-,N/A,Fog,Fog,220,2013-01-12 06:00:00
1:07 AM,44.6,42.8,93,30.14,0.5,SW,3.5,-,N/A,Fog,Fog,220,2013-01-12 06:07:00
1:14 AM,44.6,42.8,93,30.14,0.5,SW,3.5,-,N/A,Fog,Fog,220,2013-01-12 06:14:00
1:44 AM,46.4,44.6,93,30.14,1.5,Calm,Calm,-,N/A,,Overcast,0,2013-01-12 06:44:00
1:53 AM,46.0,45.0,96,30.12,2.0,SSW,3.5,-,N/A,,Overcast,200,2013-01-12 06:53:00
2:17 AM,46.4,44.6,93,30.14,4.0,West,3.5,-,N/A,,Overcast,270,2013-01-12 07:17:00
2:53 AM,48.0,46.0,93,30.14,4.0,Calm,Calm,-,N/A,,Overcast,0,2013-01-12 07:53:00
3:25 AM,46.4,46.4,100,30.14,4.0,Calm,Calm,-,N/A,,Overcast,0,2013-01-12 08:25:00
3:53 AM,48.0,46.0,93,30.12,2.5,SW,5.8,-,N/A,,Overcast,220,2013-01-12 08:53:00
4:08 AM,48.2,46.4,93,30.12,1.5,SSW,3.5,-,N/A,,Overcast,210,2013-01-12 09:08:00
4:53 AM,48.9,46.9,93,30.10,0.8,SSW,5.8,-,N/A,,Mist,210,2013-01-12 09:53:00
5:53 AM,48.9,48.0,97,30.11,0.5,Calm,Calm,-,N/A,Fog,Fog,0,2013-01-12 10:53:00
6:16 AM,48.2,46.4,93,30.12,0.2,SSW,3.5,-,N/A,Fog,Fog,200,2013-01-12 11:16:00
6:53 AM,48.9,46.9,93,30.12,0.2,SSW,3.5,-,N/A,Fog,Fog,210,2013-01-12 11:53:00
7:16 AM,50.0,48.2,94,30.13,0.5,SSW,4.6,-,N/A,Fog,Fog,210,2013-01-12 12:16:00
7:26 AM,50.0,48.2,94,30.14,0.2,WSW,4.6,-,N/A,Fog,Fog,240,2013-01-12 12:26:00
7:53 AM,50.0,48.9,96,30.12,0.2,Calm,Calm,-,N/A,Fog,Fog,0,2013-01-12 12:53:00
8:53 AM,51.1,50.0,96,30.14,0.5,Calm,Calm,-,N/A,Fog,Fog,0,2013-01-12 13:53:00
9:07 AM,51.8,50.0,94,30.15,1.5,Calm,Calm,-,N/A,,Overcast,0,2013-01-12 14:07:00
9:19 AM,51.8,50.0,94,30.15,2.5,Calm,Calm,-,N/A,,Overcast,0,2013-01-12 14:19:00
9:37 AM,51.8,51.8,100,30.16,3.0,WSW,3.5,-,N/A,,Overcast,240,2013-01-12 14:37:00
9:53 AM,53.1,51.1,93,30.15,3.0,Calm,Calm,-,N/A,,Overcast,0,2013-01-12 14:53:00
10:13 AM,53.6,51.8,94,30.17,7.0,WSW,3.5,-,N/A,,Mostly Cloudy,250,2013-01-12 15:13:00
10:53 AM,55.0,53.1,93,30.14,10.0,Calm,Calm,-,N/A,,Partly Cloudy,0,2013-01-12 15:53:00
11:53 AM,62.1,55.0,78,30.12,10.0,Calm,Calm,-,N/A,,Partly Cloudy,0,2013-01-12 16:53:00
12:53 PM,66.0,57.0,73,30.10,10.0,Calm,Calm,-,N/A,,Overcast,0,2013-01-12 17:53:00
1:53 PM,68.0,59.0,73,30.09,10.0,SW,3.5,-,N/A,,Overcast,220,2013-01-12 18:53:00
2:53 PM,69.1,59.0,70,30.09,10.0,SSW,5.8,-,N/A,,Partly Cloudy,210,2013-01-12 19:53:00
3:53 PM,68.0,59.0,73,30.09,10.0,SSW,3.5,-,N/A,,Partly Cloudy,200,2013-01-12 20:53:00
4:53 PM,66.9,57.9,73,30.09,10.0,SSW,3.5,-,N/A,,Clear,210,2013-01-12 21:53:00
5:53 PM,61.0,57.0,87,30.10,10.0,Calm,Calm,-,N/A,,Partly Cloudy,0,2013-01-12 22:53:00
6:53 PM,57.0,54.0,89,30.09,8.0,Calm,Calm,-,N/A,,Clear,0,2013-01-12 23:53:00
7:21 PM,57.2,55.4,94,30.11,1.2,Calm,Calm,-,N/A,,Clear,0,2013-01-13 00:21:00
7:40 PM,57.2,55.4,94,30.10,0.2,Calm,Calm,-,N/A,Fog,Fog,0,2013-01-13 00:40:00
7:53 PM,59.0,57.0,93,30.09,0.2,Calm,Calm,-,N/A,Fog,Fog,0,2013-01-13 00:53:00
8:02 PM,57.2,55.4,94,30.11,0.5,Calm,Calm,-,N/A,Fog,Fog,0,2013-01-13 01:02:00
8:19 PM,55.4,53.6,94,30.11,0.2,Calm,Calm,-,N/A,Fog,Fog,0,2013-01-13 01:19:00
8:30 PM,55.4,53.6,94,30.11,0.5,Calm,Calm,-,N/A,Fog,Fog,0,2013-01-13 01:30:00
8:38 PM,55.4,53.6,94,30.11,0.2,Calm,Calm,-,N/A,Fog,Fog,0,2013-01-13 01:38:00
8:53 PM,57.0,55.0,93,30.09,0.2,Calm,Calm,-,N/A,Fog,Fog,0,2013-01-13 01:53:00
9:11 PM,55.4,53.6,94,30.11,0.5,Calm,Calm,-,N/A,Fog,Fog,0,2013-01-13 02:11:00
9:18 PM,55.4,53.6,94,30.11,0.2,Calm,Calm,-,N/A,Fog,Fog,0,2013-01-13 02:18:00
9:27 PM,55.4,55.4,100,30.11,0.5,Calm,Calm,-,N/A,Fog,Fog,0,2013-01-13 02:27:00
9:53 PM,55.9,54.0,93,30.09,0.2,Calm,Calm,-,N/A,Fog,Fog,0,2013-01-13 02:53:00
10:08 PM,55.4,53.6,94,30.10,0.5,Calm,Calm,-,N/A,Fog,Fog,0,2013-01-13 03:08:00
10:34 PM,55.4,53.6,94,30.11,0.5,Calm,Calm,-,N/A,Fog,Fog,0,2013-01-13 03:34:00
10:53 PM,54.0,54.0,100,30.09,0.2,Calm,Calm,-,N/A,Fog,Fog,0,2013-01-13 03:53:00
11:21 PM,53.6,51.8,94,30.11,0.5,Calm,Calm,-,N/A,Fog,Fog,0,2013-01-13 04:21:00
11:50 PM,53.6,50.0,88,30.10,0.2,Calm,Calm,-,N/A,Fog,Fog,0,2013-01-13 04:50:00